Flag for Puerto Rico Weather past 2 weeks in San Juan, Puerto Rico

Now
74 °F

Passing clouds.


Feels Like: 72 °F
Forecast: 76 / 81 °F
Wind: No wind

Location: Luis Munoz Marin

Current Time: Mar 2, 2015 at 7:18:12 AM

Latest Report: Mar 2, 2015 at 6:56 AM


Visibility: 10 mi

Pressure: 30.09 "Hg

Humidity: 91%

Dew point: 71 °F

Location of San JuanLocation

Historic Weather in San Juan — Graph

°F

San Juan temperature yesterday

Maximum temperature yesterday: 83 °F (at 12:56 PM)
Minimum temperature yesterday: 74 °F (at 2:56 AM)
Average temperature yesterday: 79 °F

Past Weeks' High & Low Weather Summary

 TemperatureHumidityPressure
High88 °F (Feb 19, 12:56 PM)100% (Feb 16, 10:56 PM)30.17 "Hg (Feb 16, 10:56 PM)
Low72 °F (Feb 23, 5:56 AM)53% (Feb 26, 2:56 PM)29.92 "Hg (Feb 20, 4:56 AM)
Average78 °F79%30.04 "Hg
* Reported Feb 15 5:56 AM — Mar 2 5:56 AM, San Juan, Weather by CustomWeather, © 2015

Note: Actual official high and low records may vary slightly from our data, if they occured in-between our weather recording intervals... More about our weather records

Advertising

San Juan weather history for previous 24 hours

 ConditionsComfort  
Time TempWeatherWind HumidityBarometerVisibility
5:56 AM
Mon, Mar 2
74 °FPassing clouds.5 mph91%30.06 "Hg10 mi
4:56 AM74 °FPassing clouds.6 mph91%30.05 "Hg10 mi
3:56 AM76 °FPassing clouds.17 mph82%30.06 "Hg10 mi
2:56 AM75 °FPassing clouds.8 mph88%30.06 "Hg10 mi
1:56 AM75 °FPassing clouds.12 mph85%30.08 "Hg10 mi
12:56 AM76 °FPassing clouds.9 mph80%30.11 "Hg10 mi
11:56 PM
Sun, Mar 1
77 °FPassing clouds.12 mph77%30.12 "Hg10 mi
10:56 PM78 °FPassing clouds.14 mph74%30.13 "Hg10 mi
9:56 PM78 °FLight rain. Partly cloudy.14 mph76%30.13 "Hg10 mi
8:56 PM78 °FPartly cloudy.14 mph74%30.12 "Hg10 mi
7:56 PM78 °FPassing clouds.16 mph74%30.11 "Hg10 mi
6:56 PM78 °FScattered clouds.17 mph74%30.09 "Hg10 mi
5:56 PM80 °FScattered clouds.18 mph67%30.08 "Hg10 mi
4:56 PM82 °FScattered clouds.16 mph63%30.08 "Hg10 mi
3:56 PM82 °FScattered clouds.16 mph65%30.07 "Hg10 mi
2:56 PM83 °FScattered clouds.20 mph63%30.09 "Hg10 mi
1:56 PM83 °FScattered clouds.16 mph61%30.11 "Hg10 mi
12:56 PM83 °FBroken clouds.20 mph61%30.14 "Hg10 mi
11:56 AM82 °FScattered clouds.20 mph65%30.16 "Hg10 mi
10:56 AM82 °FScattered clouds.22 mph65%30.17 "Hg10 mi
9:56 AM82 °FScattered clouds.16 mph65%30.17 "Hg10 mi
8:56 AM79 °FBroken clouds.9 mph74%30.16 "Hg10 mi
7:56 AM77 °FScattered clouds.12 mph82%30.14 "Hg10 mi
Weather by CustomWeather, © 2015

See weather overviewHow to use our weather pages